Elkins, WV

9:17 PM EDT on April 25, 2017 (GMT -0400)
Elkins-Randolph County

Weather History for KEKN - December, 2014

Change the Weather History Date:

Sunday, December 21, 2014

  Actual Average Record
Temperature  
Mean Temperature 33 °F 31 °F  
Max Temperature 44 °F 41 °F 74 °F (2013)
Min Temperature 22 °F 21 °F -15 °F (1942)
Degree Days  
Heating Degree Days 32 34  
Month to date heating degree days 604 660  
Since 1 July heating degree days 1960 1944  
Cooling Degree Days 0 0  
Month to date cooling degree days 0 0  
Year to date cooling degree days 505 475  
Moisture  
Dew Point 26 °F    
Average Humidity 79    
Maximum Humidity 100    
Minimum Humidity 57    
Precipitation  
Precipitation T in 0.10 in 1.15 in (1970)
Month to date precipitation 3.28 2.27  
Year to date precipitation 41.66 44.94  
Snow  
Snow 0.00 in - - ()
Month to date snowfall T  
Since 1 September snowfall 7.6  
Snow Depth 0.00 in    
Sea Level Pressure  
Sea Level Pressure 30.28 in    
Wind  
Wind Speed 1 mph (WNW)    
Max Wind Speed 6 mph    
Max Gust Speed 8 mph    
Visibility 10 miles    
Events      
T = Trace of Precipitation, MM = Missing Value Source: NWS Daily Summary

Daily Weather History Graph

Daily Weather History Graph

Search for Another Location

Airport or City:

Trip Planner

Search our weather history database for the weather conditions in past years. The results will help you decide how hot, cold, wet, or windy it might be!

Date:

Astronomy

Dec. 21, 2014 Rise Set
Actual Time 7:34 AM EST 5:00 PM EST
Civil Twilight 7:04 AM EST 5:30 PM EST
Nautical Twilight 6:30 AM EST 6:04 PM EST
Astronomical Twilight 5:58 AM EST 6:36 PM EST
Moon 6:49 AM EST (12/21) 5:05 PM EST (12/21)
Length of Visible Light 10h 26m
Length of Day
9h 26m
Waning Crescent, 0% of the Moon is Illuminated
Dec 21
Waning Crescent
Dec 21
New
Dec 28
First Quarter
Jan 4
Full
Jan 13
Last Quarter

Hourly Weather History & Observations

Time (EST) Temp. Windchill Dew Point Humidity Pressure Visibility Wind Dir Wind Speed Gust Speed Precip Events Conditions
12:51 AM 30.9 °F - 25.0 °F 79% 30.28 in 10.0 mi Calm Calm - 0.00 in   Overcast
1:51 AM 30.0 °F 25.2 °F 26.1 °F 85% 30.29 in 10.0 mi North 4.6 mph - 0.00 in   Overcast
2:51 AM 30.0 °F - 26.1 °F 85% 30.30 in 10.0 mi Calm Calm - N/A   Overcast
3:51 AM 30.0 °F - 26.1 °F 85% 30.30 in 10.0 mi Calm Calm - N/A   Overcast
4:51 AM 30.0 °F - 26.1 °F 85% 30.30 in 10.0 mi Calm Calm - N/A   Overcast
5:51 AM 30.0 °F - 27.0 °F 88% 30.31 in 10.0 mi Calm Calm - N/A   Overcast
6:51 AM 30.0 °F - 27.0 °F 88% 30.32 in 10.0 mi Calm Calm - N/A   Overcast
7:51 AM 30.0 °F - 27.0 °F 88% 30.34 in 10.0 mi Calm Calm - N/A   Overcast
8:51 AM 30.9 °F - 27.0 °F 85% 30.34 in 10.0 mi Calm Calm - N/A   Overcast
9:51 AM 32.0 °F - 27.0 °F 82% 30.35 in 10.0 mi Calm Calm - N/A   Overcast
10:16 AM 32.0 °F - 27.0 °F 82% 30.27 in 10.0 mi Calm Calm - N/A   Overcast
10:51 AM 33.1 °F - 27.0 °F 78% 30.34 in 10.0 mi Calm Calm - N/A   Overcast
11:51 AM 36.0 °F - 28.0 °F 73% 30.31 in 10.0 mi Calm Calm - N/A   Overcast
12:51 PM 37.9 °F - 28.0 °F 68% 30.27 in 10.0 mi Calm Calm - N/A   Scattered Clouds
1:51 PM 39.9 °F - 27.0 °F 60% 30.25 in 10.0 mi Calm Calm - N/A   Clear
2:51 PM 43.0 °F 41.3 °F 28.0 °F 56% 30.21 in 10.0 mi WNW 3.5 mph - N/A   Clear
3:51 PM 43.0 °F - 28.0 °F 56% 30.22 in 10.0 mi Calm Calm - N/A   Clear
4:51 PM 37.0 °F 34.5 °F 28.9 °F 73% 30.23 in 10.0 mi WSW 3.5 mph - N/A   Clear
5:51 PM 30.0 °F - 26.1 °F 85% 30.24 in 10.0 mi Calm Calm - N/A   Clear
6:51 PM 27.0 °F - 25.0 °F 92% 30.24 in 9.0 mi Calm Calm - N/A   Clear
7:51 PM 27.0 °F - 25.0 °F 92% 30.24 in 10.0 mi Calm Calm - N/A   Clear
8:51 PM 25.0 °F - 24.1 °F 96% 30.25 in 7.0 mi Calm Calm - N/A   Clear
9:51 PM 23.0 °F - 23.0 °F 100% 30.25 in 7.0 mi Calm Calm - N/A   Clear
10:51 PM 24.1 °F - 23.0 °F 96% 30.25 in 6.0 mi Calm Calm - N/A   Clear
11:51 PM 23.0 °F - 21.9 °F 96% 30.23 in 7.0 mi Calm Calm - N/A   Clear